Year,Month,Day,Hour,Minute,Value (Times are PST for temperature in C)
2006,06,23,00,00,13.00
2006,06,23,00,01,13.00
2006,06,23,00,02,13.00
2006,06,23,00,03,12.90
2006,06,23,00,04,12.90
2006,06,23,00,05,12.90
2006,06,23,00,06,12.90
2006,06,23,00,07,12.90
2006,06,23,00,08,12.80
2006,06,23,00,09,12.80
2006,06,23,00,10,12.80
2006,06,23,00,11,12.80
2006,06,23,00,12,12.80
2006,06,23,00,13,12.80
2006,06,23,00,14,12.80
2006,06,23,00,15,12.80
2006,06,23,00,16,12.80
2006,06,23,00,17,12.80
2006,06,23,00,18,12.70
2006,06,23,00,19,12.70
2006,06,23,00,20,12.70
2006,06,23,00,21,12.70
2006,06,23,00,22,12.70
2006,06,23,00,23,12.70
2006,06,23,00,24,12.70
2006,06,23,00,25,12.70
2006,06,23,00,26,12.70
2006,06,23,00,27,12.70
2006,06,23,00,28,12.70
2006,06,23,00,29,12.70
2006,06,23,00,30,12.70
2006,06,23,00,31,12.60
2006,06,23,00,32,12.60
2006,06,23,00,33,12.60
2006,06,23,00,34,12.60
2006,06,23,00,35,12.60
2006,06,23,00,36,12.60
2006,06,23,00,37,12.60
2006,06,23,00,38,12.60
2006,06,23,00,39,12.60
2006,06,23,00,40,12.60
2006,06,23,00,41,12.60
2006,06,23,00,42,12.60
2006,06,23,00,43,12.60
2006,06,23,00,44,12.60
2006,06,23,00,45,12.60
2006,06,23,00,46,12.60
2006,06,23,00,47,12.60
2006,06,23,00,48,12.60
2006,06,23,00,49,12.60
2006,06,23,00,50,12.60
2006,06,23,00,51,12.60
2006,06,23,00,52,12.60
2006,06,23,00,53,12.60
2006,06,23,00,54,12.60
2006,06,23,00,55,12.60
2006,06,23,00,56,12.60
2006,06,23,00,57,12.60
2006,06,23,00,58,12.60
2006,06,23,00,59,12.60
2006,06,23,01,00,12.60
2006,06,23,01,01,12.60
2006,06,23,01,02,12.50
2006,06,23,01,03,12.50
2006,06,23,01,04,12.50
2006,06,23,01,05,12.50
2006,06,23,01,06,12.50
2006,06,23,01,07,12.50
2006,06,23,01,08,12.50
2006,06,23,01,09,12.50
2006,06,23,01,10,12.50
2006,06,23,01,11,12.50
2006,06,23,01,12,12.50
2006,06,23,01,13,12.50
2006,06,23,01,14,12.50
2006,06,23,01,15,12.50
2006,06,23,01,16,12.50
2006,06,23,01,17,12.50
2006,06,23,01,18,12.50
2006,06,23,01,19,12.40
2006,06,23,01,20,12.40
2006,06,23,01,21,12.40
2006,06,23,01,22,12.40
2006,06,23,01,23,12.40
2006,06,23,01,24,12.40
2006,06,23,01,25,12.30
2006,06,23,01,26,12.30
2006,06,23,01,27,12.30
2006,06,23,01,28,12.30
2006,06,23,01,29,12.30
2006,06,23,01,30,12.30
2006,06,23,01,31,12.30
2006,06,23,01,32,12.30
2006,06,23,01,33,12.30
2006,06,23,01,34,12.30
2006,06,23,01,35,12.30
2006,06,23,01,36,12.30
2006,06,23,01,37,12.20
2006,06,23,01,38,12.20
2006,06,23,01,39,12.30
2006,06,23,01,40,12.20
2006,06,23,01,41,12.30
2006,06,23,01,42,12.30
2006,06,23,01,43,12.30
2006,06,23,01,44,12.30
2006,06,23,01,45,12.30
2006,06,23,01,46,12.30
2006,06,23,01,47,12.30
2006,06,23,01,48,12.30
2006,06,23,01,49,12.30
2006,06,23,01,50,12.30
2006,06,23,01,51,12.30
2006,06,23,01,52,12.30
2006,06,23,01,53,12.30
2006,06,23,01,54,12.30
2006,06,23,01,55,12.30
2006,06,23,01,56,12.30
2006,06,23,01,57,12.30
2006,06,23,01,58,12.30
2006,06,23,01,59,12.30
2006,06,23,02,00,12.30
2006,06,23,02,01,12.30
2006,06,23,02,02,12.30
2006,06,23,02,03,12.30
2006,06,23,02,04,12.30
2006,06,23,02,05,12.20
2006,06,23,02,06,12.20
2006,06,23,02,07,12.20
2006,06,23,02,08,12.20
2006,06,23,02,09,12.20
2006,06,23,02,10,12.30
2006,06,23,02,11,12.30
2006,06,23,02,12,12.30
2006,06,23,02,13,12.30
2006,06,23,02,14,12.30
2006,06,23,02,15,12.20
2006,06,23,02,16,12.20
2006,06,23,02,17,12.20
2006,06,23,02,18,12.20
2006,06,23,02,19,12.20
2006,06,23,02,20,12.20
2006,06,23,02,21,12.20
2006,06,23,02,22,12.20
2006,06,23,02,23,12.10
2006,06,23,02,24,12.10
2006,06,23,02,25,12.10
2006,06,23,02,26,12.10
2006,06,23,02,27,12.10
2006,06,23,02,28,12.10
2006,06,23,02,29,12.10
2006,06,23,02,30,12.10
2006,06,23,02,31,12.10
2006,06,23,02,32,12.00
2006,06,23,02,33,12.00
2006,06,23,02,34,12.00
2006,06,23,02,35,12.00
2006,06,23,02,36,12.00
2006,06,23,02,37,12.00
2006,06,23,02,38,12.00
2006,06,23,02,39,12.00
2006,06,23,02,40,12.00
2006,06,23,02,41,12.00
2006,06,23,02,42,12.00
2006,06,23,02,43,12.00
2006,06,23,02,44,12.00
2006,06,23,02,45,12.00
2006,06,23,02,46,12.00
2006,06,23,02,47,12.00
2006,06,23,02,48,12.00
2006,06,23,02,49,12.00
2006,06,23,02,50,12.00
2006,06,23,02,51,11.90
2006,06,23,02,52,11.90
2006,06,23,02,53,11.90
2006,06,23,02,54,11.90
2006,06,23,02,55,11.90
2006,06,23,02,56,11.90
2006,06,23,02,57,11.90
2006,06,23,02,58,11.90
2006,06,23,02,59,11.90
2006,06,23,03,00,11.90
2006,06,23,03,01,11.90
2006,06,23,03,02,11.90
2006,06,23,03,03,11.90
2006,06,23,03,04,11.90
2006,06,23,03,05,11.90
2006,06,23,03,06,11.90
2006,06,23,03,07,11.90
2006,06,23,03,08,11.90
2006,06,23,03,09,11.90
2006,06,23,03,10,11.90
2006,06,23,03,11,12.00
2006,06,23,03,12,12.00
2006,06,23,03,13,12.00
2006,06,23,03,14,12.00
2006,06,23,03,15,12.00
2006,06,23,03,16,12.00
2006,06,23,03,17,12.00
2006,06,23,03,18,11.90
2006,06,23,03,19,11.90
2006,06,23,03,20,11.90
2006,06,23,03,21,11.90
2006,06,23,03,22,11.90
2006,06,23,03,23,11.90
2006,06,23,03,24,11.90
2006,06,23,03,25,11.90
2006,06,23,03,26,11.90
2006,06,23,03,27,11.90
2006,06,23,03,28,11.90
2006,06,23,03,29,11.90
2006,06,23,03,30,11.90
2006,06,23,03,31,11.80
2006,06,23,03,32,11.80
2006,06,23,03,33,11.80
2006,06,23,03,34,11.80
2006,06,23,03,35,11.80
2006,06,23,03,36,11.80
2006,06,23,03,37,11.80
2006,06,23,03,38,11.80
2006,06,23,03,39,11.80
2006,06,23,03,40,11.80
2006,06,23,03,41,11.80
2006,06,23,03,42,11.80
2006,06,23,03,43,11.70
2006,06,23,03,44,11.70
2006,06,23,03,45,11.70
2006,06,23,03,46,11.70
2006,06,23,03,47,11.70
2006,06,23,03,48,11.70
2006,06,23,03,49,11.70
2006,06,23,03,50,11.70
2006,06,23,03,51,11.70
2006,06,23,03,52,11.70
2006,06,23,03,53,11.70
2006,06,23,03,54,11.70
2006,06,23,03,55,11.70
2006,06,23,03,56,11.70
2006,06,23,03,57,11.70
2006,06,23,03,58,11.70
2006,06,23,03,59,11.70
2006,06,23,04,00,11.70
2006,06,23,04,01,11.70
2006,06,23,04,02,11.70
2006,06,23,04,03,11.70
2006,06,23,04,04,11.70
2006,06,23,04,05,11.70
2006,06,23,04,06,11.60
2006,06,23,04,07,11.60
2006,06,23,04,08,11.60
2006,06,23,04,09,11.60
2006,06,23,04,10,11.60
2006,06,23,04,11,11.60
2006,06,23,04,12,11.60
2006,06,23,04,13,11.60
2006,06,23,04,14,11.60
2006,06,23,04,15,11.60
2006,06,23,04,16,11.50
2006,06,23,04,17,11.40
2006,06,23,04,18,11.40
2006,06,23,04,19,11.40
2006,06,23,04,20,11.40
2006,06,23,04,21,11.40
2006,06,23,04,22,11.40
2006,06,23,04,23,11.40
2006,06,23,04,24,11.40
2006,06,23,04,25,11.40
2006,06,23,04,26,11.40
2006,06,23,04,27,11.40
2006,06,23,04,28,11.40
2006,06,23,04,29,11.40
2006,06,23,04,30,11.40
2006,06,23,04,31,11.40
2006,06,23,04,32,11.30
2006,06,23,04,33,11.30
2006,06,23,04,34,11.30
2006,06,23,04,35,11.30
2006,06,23,04,36,11.30
2006,06,23,04,37,11.30
2006,06,23,04,38,11.30
2006,06,23,04,39,11.30
2006,06,23,04,40,11.30
2006,06,23,04,41,11.30
2006,06,23,04,42,11.30
2006,06,23,04,43,11.30
2006,06,23,04,44,11.30
2006,06,23,04,45,11.30
2006,06,23,04,46,11.30
2006,06,23,04,47,11.30
2006,06,23,04,48,11.30
2006,06,23,04,49,11.30
2006,06,23,04,50,11.30
2006,06,23,04,51,11.30
2006,06,23,04,52,11.30
2006,06,23,04,53,11.30
2006,06,23,04,54,11.30
2006,06,23,04,55,11.30
2006,06,23,04,56,11.30
2006,06,23,04,57,11.30
2006,06,23,04,58,11.30
2006,06,23,04,59,11.30
2006,06,23,05,00,11.40
2006,06,23,05,01,11.40
2006,06,23,05,02,11.40
2006,06,23,05,03,11.40
2006,06,23,05,04,11.40
2006,06,23,05,05,11.40
2006,06,23,05,06,11.40
2006,06,23,05,07,11.40
2006,06,23,05,08,11.40
2006,06,23,05,09,11.40
2006,06,23,05,10,11.40
2006,06,23,05,11,11.40
2006,06,23,05,12,11.40
2006,06,23,05,13,11.40
2006,06,23,05,14,11.40
2006,06,23,05,15,11.30
2006,06,23,05,16,11.30
2006,06,23,05,17,11.30
2006,06,23,05,18,11.30
2006,06,23,05,19,11.30
2006,06,23,05,20,11.30
2006,06,23,05,21,11.30
2006,06,23,05,22,11.30
2006,06,23,05,23,11.30
2006,06,23,05,24,11.30
2006,06,23,05,25,11.30
2006,06,23,05,26,11.30
2006,06,23,05,27,11.30
2006,06,23,05,28,11.30
2006,06,23,05,29,11.30
2006,06,23,05,30,11.30
2006,06,23,05,31,11.30
2006,06,23,05,32,11.30
2006,06,23,05,33,11.30
2006,06,23,05,34,11.30
2006,06,23,05,35,11.30
2006,06,23,05,36,11.30
2006,06,23,05,37,11.30
2006,06,23,05,38,11.30
2006,06,23,05,39,11.30
2006,06,23,05,40,11.30
2006,06,23,05,41,11.30
2006,06,23,05,42,11.30
2006,06,23,05,43,11.30
2006,06,23,05,44,11.30
2006,06,23,05,45,11.30
2006,06,23,05,46,11.20
2006,06,23,05,47,11.20
2006,06,23,05,48,11.20
2006,06,23,05,49,11.20
2006,06,23,05,50,11.20
2006,06,23,05,51,11.20
2006,06,23,05,52,11.20
2006,06,23,05,53,11.20
2006,06,23,05,54,11.20
2006,06,23,05,55,11.20
2006,06,23,05,56,11.10
2006,06,23,05,57,11.10
2006,06,23,05,58,11.10
2006,06,23,05,59,11.10
2006,06,23,06,00,11.10
2006,06,23,06,01,11.10
2006,06,23,06,02,11.10
2006,06,23,06,03,11.10
2006,06,23,06,04,11.10
2006,06,23,06,05,11.10
2006,06,23,06,06,11.10
2006,06,23,06,07,11.10
2006,06,23,06,08,11.10
2006,06,23,06,09,11.10
2006,06,23,06,10,11.10
2006,06,23,06,11,11.10
2006,06,23,06,12,11.10
2006,06,23,06,13,11.20
2006,06,23,06,14,11.20
2006,06,23,06,15,11.20
2006,06,23,06,16,11.20
2006,06,23,06,17,11.30
2006,06,23,06,18,11.30
2006,06,23,06,19,11.40
2006,06,23,06,20,11.40
2006,06,23,06,21,11.40
2006,06,23,06,22,11.40
2006,06,23,06,23,11.50
2006,06,23,06,24,11.60
2006,06,23,06,25,11.60
2006,06,23,06,26,11.60
2006,06,23,06,27,11.60
2006,06,23,06,28,11.70
2006,06,23,06,29,11.70
2006,06,23,06,30,11.70
2006,06,23,06,31,11.80
2006,06,23,06,32,11.80
2006,06,23,06,33,11.80
2006,06,23,06,34,11.90
2006,06,23,06,35,11.90
2006,06,23,06,36,12.00
2006,06,23,06,37,12.00
2006,06,23,06,38,12.00
2006,06,23,06,39,12.10
2006,06,23,06,40,12.10
2006,06,23,06,41,12.10
2006,06,23,06,42,12.10
2006,06,23,06,43,12.20
2006,06,23,06,44,12.20
2006,06,23,06,45,12.20
2006,06,23,06,46,12.20
2006,06,23,06,47,12.20
2006,06,23,06,48,12.20
2006,06,23,06,49,12.30
2006,06,23,06,50,12.30
2006,06,23,06,51,12.30
2006,06,23,06,52,12.40
2006,06,23,06,53,12.40
2006,06,23,06,54,12.50
2006,06,23,06,55,12.50
2006,06,23,06,56,12.60
2006,06,23,06,57,12.60
2006,06,23,06,58,12.60
2006,06,23,06,59,12.70
2006,06,23,07,00,12.70
2006,06,23,07,01,12.80
2006,06,23,07,02,12.80
2006,06,23,07,03,12.80
2006,06,23,07,04,12.90
2006,06,23,07,05,12.90
2006,06,23,07,06,13.00
2006,06,23,07,07,13.10
2006,06,23,07,08,13.10
2006,06,23,07,09,13.20
2006,06,23,07,10,13.20
2006,06,23,07,11,13.20
2006,06,23,07,12,13.30
2006,06,23,07,13,13.30
2006,06,23,07,14,13.40
2006,06,23,07,15,13.50
2006,06,23,07,16,13.60
2006,06,23,07,17,13.60
2006,06,23,07,18,13.70
2006,06,23,07,19,13.70
2006,06,23,07,20,13.70
2006,06,23,07,21,13.80
2006,06,23,07,22,13.90
2006,06,23,07,23,13.90
2006,06,23,07,24,14.00
2006,06,23,07,25,14.00
2006,06,23,07,26,14.00
2006,06,23,07,27,14.00
2006,06,23,07,28,14.10
2006,06,23,07,29,14.20
2006,06,23,07,30,14.20
2006,06,23,07,31,14.20
2006,06,23,07,32,14.20
2006,06,23,07,33,14.30
2006,06,23,07,34,14.30
2006,06,23,07,35,14.40
2006,06,23,07,36,14.40
2006,06,23,07,37,14.50
2006,06,23,07,38,14.60
2006,06,23,07,39,14.70
2006,06,23,07,40,14.80
2006,06,23,07,41,14.80
2006,06,23,07,42,14.90
2006,06,23,07,43,14.90
2006,06,23,07,44,15.00
2006,06,23,07,45,15.00
2006,06,23,07,46,15.00
2006,06,23,07,47,15.10
2006,06,23,07,48,15.10
2006,06,23,07,49,15.20
2006,06,23,07,50,15.30
2006,06,23,07,51,15.30
2006,06,23,07,52,15.30
2006,06,23,07,53,15.30
2006,06,23,07,54,15.30
2006,06,23,07,55,15.30
2006,06,23,07,56,15.30
2006,06,23,07,57,15.30
2006,06,23,07,58,15.30
2006,06,23,07,59,15.30
2006,06,23,08,00,15.30
2006,06,23,08,01,15.30
2006,06,23,08,02,15.30
2006,06,23,08,03,15.30
2006,06,23,08,04,15.30
2006,06,23,08,05,15.40
2006,06,23,08,06,15.40
2006,06,23,08,07,15.40
2006,06,23,08,08,15.40
2006,06,23,08,09,15.40
2006,06,23,08,10,15.40
2006,06,23,08,11,15.40
2006,06,23,08,12,15.40
2006,06,23,08,13,15.50
2006,06,23,08,14,15.50
2006,06,23,08,15,15.60
2006,06,23,08,16,15.70
2006,06,23,08,17,15.70
2006,06,23,08,18,15.80
2006,06,23,08,19,15.90
2006,06,23,08,20,15.90
2006,06,23,08,21,16.00
2006,06,23,08,22,16.10
2006,06,23,08,23,16.10
2006,06,23,08,24,16.20
2006,06,23,08,25,16.20
2006,06,23,08,26,16.20
2006,06,23,08,27,16.20
2006,06,23,08,28,16.20
2006,06,23,08,29,16.20
2006,06,23,08,30,16.20
2006,06,23,08,31,16.20
2006,06,23,08,32,16.20
2006,06,23,08,33,16.20
2006,06,23,08,34,16.20
2006,06,23,08,35,16.20
2006,06,23,08,36,16.20
2006,06,23,08,37,16.30
2006,06,23,08,38,16.30
2006,06,23,08,39,16.40
2006,06,23,08,40,16.30
2006,06,23,08,41,16.00
2006,06,23,08,42,15.70
2006,06,23,08,43,15.50
2006,06,23,08,44,15.40
2006,06,23,08,45,15.40
2006,06,23,08,46,15.50
2006,06,23,08,47,15.50
2006,06,23,08,48,15.60
2006,06,23,08,49,15.60
2006,06,23,08,50,15.60
2006,06,23,08,51,15.60
2006,06,23,08,52,15.60
2006,06,23,08,53,15.50
2006,06,23,08,54,15.50
2006,06,23,08,55,15.60
2006,06,23,08,56,15.60
2006,06,23,08,57,15.70
2006,06,23,08,58,15.70
2006,06,23,08,59,15.70
2006,06,23,09,00,15.80
2006,06,23,09,01,15.70
2006,06,23,09,02,15.70
2006,06,23,09,03,15.70
2006,06,23,09,04,15.80
2006,06,23,09,05,15.80
2006,06,23,09,06,15.80
2006,06,23,09,07,15.90
2006,06,23,09,08,15.90
2006,06,23,09,09,16.00
2006,06,23,09,10,16.10
2006,06,23,09,11,16.20
2006,06,23,09,12,16.30
2006,06,23,09,13,16.40
2006,06,23,09,14,16.60
2006,06,23,09,15,16.70
2006,06,23,09,16,16.70
2006,06,23,09,17,16.70
2006,06,23,09,18,16.70
2006,06,23,09,19,16.70
2006,06,23,09,20,16.70
2006,06,23,09,21,16.80
2006,06,23,09,22,16.70
2006,06,23,09,23,16.70
2006,06,23,09,24,16.80
2006,06,23,09,25,16.70
2006,06,23,09,26,16.70
2006,06,23,09,27,16.70
2006,06,23,09,28,16.70
2006,06,23,09,29,16.70
2006,06,23,09,30,16.80
2006,06,23,09,31,16.80
2006,06,23,09,32,16.80
2006,06,23,09,33,16.90
2006,06,23,09,34,17.00
2006,06,23,09,35,17.00
2006,06,23,09,36,17.10
2006,06,23,09,37,17.20
2006,06,23,09,38,17.10
2006,06,23,09,39,17.10
2006,06,23,09,40,17.10
2006,06,23,09,41,17.10
2006,06,23,09,42,17.10
2006,06,23,09,43,17.00
2006,06,23,09,44,17.00
2006,06,23,09,45,17.00
2006,06,23,09,46,17.00
2006,06,23,09,47,17.00
2006,06,23,09,48,17.00
2006,06,23,09,49,17.00
2006,06,23,09,50,17.00
2006,06,23,09,51,17.00
2006,06,23,09,52,17.00
2006,06,23,09,53,16.90
2006,06,23,09,54,16.80
2006,06,23,09,55,16.70
2006,06,23,09,56,16.70
2006,06,23,09,57,16.70
2006,06,23,09,58,16.70
2006,06,23,09,59,16.80
2006,06,23,10,00,16.90
2006,06,23,10,01,17.00
2006,06,23,10,02,17.10
2006,06,23,10,03,17.10
2006,06,23,10,04,17.20
2006,06,23,10,05,17.30
2006,06,23,10,06,17.30
2006,06,23,10,07,17.20
2006,06,23,10,08,17.10
2006,06,23,10,09,17.00
2006,06,23,10,10,17.00
2006,06,23,10,11,17.00
2006,06,23,10,12,17.10
2006,06,23,10,13,17.10
2006,06,23,10,14,17.20
2006,06,23,10,15,17.30
2006,06,23,10,16,17.30
2006,06,23,10,17,17.30
2006,06,23,10,18,17.30
2006,06,23,10,19,17.20
2006,06,23,10,20,17.20
2006,06,23,10,21,17.20
2006,06,23,10,22,17.20
2006,06,23,10,23,17.20
2006,06,23,10,24,17.30
2006,06,23,10,25,17.30
2006,06,23,10,26,17.40
2006,06,23,10,27,17.50
2006,06,23,10,28,17.50
2006,06,23,10,29,17.60
2006,06,23,10,30,17.60
2006,06,23,10,31,17.70
2006,06,23,10,32,17.70
2006,06,23,10,33,17.60
2006,06,23,10,34,17.60
2006,06,23,10,35,17.60
2006,06,23,10,36,17.60
2006,06,23,10,37,17.70
2006,06,23,10,38,17.70
2006,06,23,10,39,17.70
2006,06,23,10,40,17.80
2006,06,23,10,41,17.80
2006,06,23,10,42,17.80
2006,06,23,10,43,17.80
2006,06,23,10,44,17.80
2006,06,23,10,45,17.90
2006,06,23,10,46,18.10
2006,06,23,10,47,18.10
2006,06,23,10,48,18.10
2006,06,23,10,49,18.10
2006,06,23,10,50,18.00
2006,06,23,10,51,17.90
2006,06,23,10,52,17.80
2006,06,23,10,53,17.80
2006,06,23,10,54,17.80
2006,06,23,10,55,17.80
2006,06,23,10,56,17.80
2006,06,23,10,57,17.80
2006,06,23,10,58,17.70
2006,06,23,10,59,17.70
2006,06,23,11,00,17.70
2006,06,23,11,01,17.80
2006,06,23,11,02,17.90
2006,06,23,11,03,17.90
2006,06,23,11,04,18.10
2006,06,23,11,05,18.20
2006,06,23,11,06,18.30
2006,06,23,11,07,18.40
2006,06,23,11,08,18.50
2006,06,23,11,09,18.60
2006,06,23,11,10,18.70
2006,06,23,11,11,18.80
2006,06,23,11,12,18.70
2006,06,23,11,13,18.70
2006,06,23,11,14,18.60
2006,06,23,11,15,18.70
2006,06,23,11,16,18.70
2006,06,23,11,17,18.70
2006,06,23,11,18,18.80
2006,06,23,11,19,18.90
2006,06,23,11,20,19.00
2006,06,23,11,21,19.10
2006,06,23,11,22,19.30
2006,06,23,11,23,19.40
2006,06,23,11,24,19.60
2006,06,23,11,25,19.70
2006,06,23,11,26,19.70
2006,06,23,11,27,19.60
2006,06,23,11,28,19.20
2006,06,23,11,29,19.00
2006,06,23,11,30,18.90
2006,06,23,11,31,18.80
2006,06,23,11,32,18.60
2006,06,23,11,33,18.60
2006,06,23,11,34,18.70
2006,06,23,11,35,18.70
2006,06,23,11,36,18.70
2006,06,23,11,37,18.70
2006,06,23,11,38,18.60
2006,06,23,11,39,18.50
2006,06,23,11,40,18.40
2006,06,23,11,41,18.50
2006,06,23,11,42,18.40
2006,06,23,11,43,18.30
2006,06,23,11,44,18.40
2006,06,23,11,45,18.50
2006,06,23,11,46,18.60
2006,06,23,11,47,18.60
2006,06,23,11,48,18.70
2006,06,23,11,49,18.80
2006,06,23,11,50,18.90
2006,06,23,11,51,19.10
2006,06,23,11,52,19.30
2006,06,23,11,53,19.50
2006,06,23,11,54,19.50
2006,06,23,11,55,19.60
2006,06,23,11,56,19.70
2006,06,23,11,57,19.70
2006,06,23,11,58,19.70
2006,06,23,11,59,19.70
2006,06,23,12,00,19.80
2006,06,23,12,01,19.80
2006,06,23,12,02,19.80
2006,06,23,12,03,19.80
2006,06,23,12,04,19.70
2006,06,23,12,05,19.70
2006,06,23,12,06,19.70
2006,06,23,12,07,19.70
2006,06,23,12,08,19.80
2006,06,23,12,09,19.80
2006,06,23,12,10,19.90
2006,06,23,12,11,20.00
2006,06,23,12,12,20.10
2006,06,23,12,13,20.10
2006,06,23,12,14,20.00
2006,06,23,12,15,20.00
2006,06,23,12,16,19.90
2006,06,23,12,17,20.00
2006,06,23,12,18,20.00
2006,06,23,12,19,19.90
2006,06,23,12,20,19.80
2006,06,23,12,21,19.80
2006,06,23,12,22,19.80
2006,06,23,12,23,19.80
2006,06,23,12,24,19.70
2006,06,23,12,25,19.80
2006,06,23,12,26,19.90
2006,06,23,12,27,19.80
2006,06,23,12,28,19.70
2006,06,23,12,29,19.70
2006,06,23,12,30,19.60
2006,06,23,12,31,19.50
2006,06,23,12,32,19.30
2006,06,23,12,33,19.20
2006,06,23,12,34,19.10
2006,06,23,12,35,19.00
2006,06,23,12,36,18.80
2006,06,23,12,37,18.60
2006,06,23,12,38,18.60
2006,06,23,12,39,18.50
2006,06,23,12,40,18.50
2006,06,23,12,41,18.50
2006,06,23,12,42,18.60
2006,06,23,12,43,18.50
2006,06,23,12,44,18.40
2006,06,23,12,45,18.30
2006,06,23,12,46,18.20
2006,06,23,12,47,18.20
2006,06,23,12,48,18.30
2006,06,23,12,49,18.40
2006,06,23,12,50,18.40
2006,06,23,12,51,18.50
2006,06,23,12,52,18.40
2006,06,23,12,53,18.40
2006,06,23,12,54,18.40
2006,06,23,12,55,18.30
2006,06,23,12,56,18.30
2006,06,23,12,57,18.40
2006,06,23,12,58,18.40
2006,06,23,12,59,18.40
2006,06,23,13,00,18.40
2006,06,23,13,01,18.50
2006,06,23,13,02,18.50
2006,06,23,13,03,18.50
2006,06,23,13,04,18.50
2006,06,23,13,05,18.50
2006,06,23,13,06,18.40
2006,06,23,13,07,18.30
2006,06,23,13,08,18.20
2006,06,23,13,09,18.20
2006,06,23,13,10,18.20
2006,06,23,13,11,18.20
2006,06,23,13,12,18.20
2006,06,23,13,13,18.20
2006,06,23,13,14,18.20
2006,06,23,13,15,18.20
2006,06,23,13,16,18.30
2006,06,23,13,17,18.40
2006,06,23,13,18,18.50
2006,06,23,13,19,18.50
2006,06,23,13,20,18.60
2006,06,23,13,21,18.50
2006,06,23,13,22,18.50
2006,06,23,13,23,18.60
2006,06,23,13,24,18.50
2006,06,23,13,25,18.50
2006,06,23,13,26,18.60
2006,06,23,13,27,18.60
2006,06,23,13,28,18.70
2006,06,23,13,29,18.70
2006,06,23,13,30,18.80
2006,06,23,13,31,18.90
2006,06,23,13,32,18.90
2006,06,23,13,33,19.00
2006,06,23,13,34,19.10
2006,06,23,13,35,19.10
2006,06,23,13,36,18.90
2006,06,23,13,37,18.80
2006,06,23,13,38,18.80
2006,06,23,13,39,18.90
2006,06,23,13,40,18.90
2006,06,23,13,41,18.90
2006,06,23,13,42,18.80
2006,06,23,13,43,18.70
2006,06,23,13,44,18.60
2006,06,23,13,45,18.60
2006,06,23,13,46,18.60
2006,06,23,13,47,18.50
2006,06,23,13,48,18.50
2006,06,23,13,49,18.60
2006,06,23,13,50,18.60
2006,06,23,13,51,18.60
2006,06,23,13,52,18.60
2006,06,23,13,53,18.50
2006,06,23,13,54,18.50
2006,06,23,13,55,18.60
2006,06,23,13,56,18.60
2006,06,23,13,57,18.70
2006,06,23,13,58,18.80
2006,06,23,13,59,18.90
2006,06,23,14,00,19.00
2006,06,23,14,01,19.10
2006,06,23,14,02,18.90
2006,06,23,14,03,18.90
2006,06,23,14,04,18.90
2006,06,23,14,05,18.90
2006,06,23,14,06,18.90
2006,06,23,14,07,18.90
2006,06,23,14,08,18.90
2006,06,23,14,09,19.00
2006,06,23,14,10,19.10
2006,06,23,14,11,19.10
2006,06,23,14,12,19.20
2006,06,23,14,13,19.20
2006,06,23,14,14,19.10
2006,06,23,14,15,19.00
2006,06,23,14,16,18.90
2006,06,23,14,17,18.90
2006,06,23,14,18,18.90
2006,06,23,14,19,18.90
2006,06,23,14,20,18.90
2006,06,23,14,21,18.90
2006,06,23,14,22,18.90
2006,06,23,14,23,18.90
2006,06,23,14,24,18.90
2006,06,23,14,25,18.90
2006,06,23,14,26,19.00
2006,06,23,14,27,19.10
2006,06,23,14,28,19.10
2006,06,23,14,29,19.20
2006,06,23,14,30,19.30
2006,06,23,14,31,19.50
2006,06,23,14,32,19.60
2006,06,23,14,33,19.60
2006,06,23,14,34,19.60
2006,06,23,14,35,19.60
2006,06,23,14,36,19.60
2006,06,23,14,37,19.60
2006,06,23,14,38,19.60
2006,06,23,14,39,19.70
2006,06,23,14,40,19.70
2006,06,23,14,41,19.80
2006,06,23,14,42,19.90
2006,06,23,14,43,19.90
2006,06,23,14,44,20.00
2006,06,23,14,45,20.10
2006,06,23,14,46,20.10
2006,06,23,14,47,20.10
2006,06,23,14,48,20.10
2006,06,23,14,49,20.10
2006,06,23,14,50,20.10
2006,06,23,14,51,19.90
2006,06,23,14,52,20.00
2006,06,23,14,53,20.10
2006,06,23,14,54,20.10
2006,06,23,14,55,20.20
2006,06,23,14,56,20.10
2006,06,23,14,57,20.20
2006,06,23,14,58,20.10
2006,06,23,14,59,20.10
2006,06,23,15,00,20.10
2006,06,23,15,01,20.10
2006,06,23,15,02,20.10
2006,06,23,15,03,20.10
2006,06,23,15,04,20.10
2006,06,23,15,05,20.20
2006,06,23,15,06,20.20
2006,06,23,15,07,20.20
2006,06,23,15,08,20.20
2006,06,23,15,09,20.20
2006,06,23,15,10,20.10
2006,06,23,15,11,20.10
2006,06,23,15,12,20.10
2006,06,23,15,13,20.10
2006,06,23,15,14,20.20
2006,06,23,15,15,20.20
2006,06,23,15,16,20.20
2006,06,23,15,17,20.20
2006,06,23,15,18,20.20
2006,06,23,15,19,20.20
2006,06,23,15,20,20.10
2006,06,23,15,21,20.10
2006,06,23,15,22,20.10
2006,06,23,15,23,20.00
2006,06,23,15,24,19.90
2006,06,23,15,25,20.00
2006,06,23,15,26,20.10
2006,06,23,15,27,20.10
2006,06,23,15,28,20.20
2006,06,23,15,29,20.20
2006,06,23,15,30,20.20
2006,06,23,15,31,20.20
2006,06,23,15,32,19.90
2006,06,23,15,33,19.70
2006,06,23,15,34,19.60
2006,06,23,15,35,19.60
2006,06,23,15,36,19.60
2006,06,23,15,37,19.70
2006,06,23,15,38,19.70
2006,06,23,15,39,19.70
2006,06,23,15,40,19.80
2006,06,23,15,41,19.80
2006,06,23,15,42,19.90
2006,06,23,15,43,20.00
2006,06,23,15,44,20.10
2006,06,23,15,45,20.10
2006,06,23,15,46,20.10
2006,06,23,15,47,20.10
2006,06,23,15,48,20.20
2006,06,23,15,49,20.20
2006,06,23,15,50,20.30
2006,06,23,15,51,20.30
2006,06,23,15,52,20.20
2006,06,23,15,53,20.20
2006,06,23,15,54,20.20
2006,06,23,15,55,20.20
2006,06,23,15,56,20.10
2006,06,23,15,57,20.10
2006,06,23,15,58,20.00
2006,06,23,15,59,19.90
2006,06,23,16,00,19.90
2006,06,23,16,01,20.00
2006,06,23,16,02,20.10
2006,06,23,16,03,20.20
2006,06,23,16,04,20.40
2006,06,23,16,05,20.50
2006,06,23,16,06,20.60
2006,06,23,16,07,20.60
2006,06,23,16,08,20.70
2006,06,23,16,09,20.70
2006,06,23,16,10,20.70
2006,06,23,16,11,20.80
2006,06,23,16,12,20.80
2006,06,23,16,13,20.80
2006,06,23,16,14,20.90
2006,06,23,16,15,20.80
2006,06,23,16,16,20.80
2006,06,23,16,17,20.70
2006,06,23,16,18,20.70
2006,06,23,16,19,20.70
2006,06,23,16,20,20.70
2006,06,23,16,21,20.70
2006,06,23,16,22,20.70
2006,06,23,16,23,20.60
2006,06,23,16,24,20.60
2006,06,23,16,25,20.60
2006,06,23,16,26,20.70
2006,06,23,16,27,20.80
2006,06,23,16,28,20.90
2006,06,23,16,29,20.90
2006,06,23,16,30,21.00
2006,06,23,16,31,21.10
2006,06,23,16,32,21.00
2006,06,23,16,33,21.00
2006,06,23,16,34,21.10
2006,06,23,16,35,21.20
2006,06,23,16,36,21.30
2006,06,23,16,37,21.30
2006,06,23,16,38,21.40
2006,06,23,16,39,21.40
2006,06,23,16,40,21.40
2006,06,23,16,41,21.30
2006,06,23,16,42,21.30
2006,06,23,16,43,21.40
2006,06,23,16,44,21.40
2006,06,23,16,45,21.60
2006,06,23,16,46,21.60
2006,06,23,16,47,21.60
2006,06,23,16,48,21.60
2006,06,23,16,49,21.60
2006,06,23,16,50,21.60
2006,06,23,16,51,21.60
2006,06,23,16,52,21.60
2006,06,23,16,53,21.60
2006,06,23,16,54,21.60
2006,06,23,16,55,21.60
2006,06,23,16,56,21.60
2006,06,23,16,57,21.60
2006,06,23,16,58,21.60
2006,06,23,16,59,21.60
2006,06,23,17,00,21.50
2006,06,23,17,01,21.30
2006,06,23,17,02,21.30
2006,06,23,17,03,21.30
2006,06,23,17,04,21.20
2006,06,23,17,05,21.10
2006,06,23,17,06,21.10
2006,06,23,17,07,21.00
2006,06,23,17,08,21.00
2006,06,23,17,09,21.00
2006,06,23,17,10,21.00
2006,06,23,17,11,21.00
2006,06,23,17,12,21.00
2006,06,23,17,13,21.00
2006,06,23,17,14,21.10
2006,06,23,17,15,21.10
2006,06,23,17,16,21.00
2006,06,23,17,17,21.00
2006,06,23,17,18,20.90
2006,06,23,17,19,20.80